Dauntless Aviation
Greetings, Guest! To participate, [sign up for a free account] or [log in]
Airports South America Argentina
SABE
AEP

Aeroparque Jorge Newbery

Buenos Aires, ARGENTINA

Airport Info
Edit

Location

Latitude / Longitude: 34°33'33"S / 58°24'56"W
  34°33.552'S / 58°24.936'W
  -34.5592 / -58.4156

Nearby radio navigation aids

FDO SAN FERNANDO VOR/DME. 132.7° 10.6nm from FDO to field.
OP AEROPARQUE JORGE NEWBERY NDB. 131.1° 4.3nm from OP to field.

Runway Information

Runway 13 /31

Dimensions: 6890 x 131 ft.
Surface: ASP
 
Runway 13
Runway 31
Latitude: -34.553942 -34.563844
Longitude: -58.425247 -58.407506
Elevation: 18 ft. 18 ft.
Runway true heading: 126.3 306.3
 

Instrument Procedures

STARs (Standard Terminal Arrivals)

  STAR Rwy 13/16 PAGON7C SANANTONIO7C ASADA7C VALOS8C
  STAR Rwy 13/16 SURBO7A SARGO7C KOVUK7C TENIL7C BELGRANO7C
  STAR Rwy 31 SURBO2B SARGO7D KOVUK7D TENIL7D BELGRANO7D VALOS7D ASADA7D
  STAR Rwy 31 PAGON7D SANANTONIO7D

IAPs (Instrument Approach Procedures)

  VOR (DME) ILS (DME) Rwy 13 (From VANAR)
  VOR (DME) ILS (DME) Rwy 13
  LI ILS (DME) Rwy 13
  VOR (DME) LO LI Rwy 13 (From VANAR)
  LI LO LI Rwy 13
  LI Rwy 13 (From QUILMES)
  LI Rwy 31

Departure Procedures

  SID Rwy 13/31
  SID Rwy 13/31 Textual Description
  SID Rwy 13/31 LANDA3B BIVAM3B ATOVO3B
  SID 13/31 LANDA3B BIVAM3B ATOVO3B Textual Description
  SID Rwy 13/31 KUKEN7 SUROBO7 DORVO7 LAPLATA7
  SID Rwy 13/31 KUKEN7 SUROBO7 DORVO7 LAPLATA7 Textual Description
  SID S Rwy 13/31
  SID Rwy 13/31 Textual Description
Satellite photo at:
Airport distance calculator
From:
Weather Reports

METAR

SABE

SABE 252000Z 11009KT CAVOK 26/20 Q1011
SADF
10.6nm W
SADF 252000Z 09009KT 9999 FEW030 OVC200 28/18 Q1010
SAEZ
16.2nm S
SAEZ 252000Z 07010KT 030V090 9999 FEW049 BKN200 30/16 Q1011
SUCA
30.3nm NE
SUCA 252000Z XXXXXKT 9999 FEW030 25/20 Q1010

TAF

SABE
TAF SABE 251700Z 2518/2618 05005KT CAVOK TX32/2618Z TN21/2610Z BECMG 2600/2602 07010KT BECMG 2604/2608 07015KT BECMG 2608/2611 02010KT 9999 SCT035 SCT100 BECMG 2614/2616 02010KT CAVOK
SADF
10.6nm W
TAF SADF 251700Z 2518/2618 05010KT 9999 SCT030 TX31/2618Z TN20/2609Z BECMG 2603/2605 02010KT SCT020 SCT100 BECMG 2607/2609 36010KT
SAEZ
16.2nm S
TAF SAEZ 251700Z 2518/2618 05007KT 9999 SCT045 TX32/2618Z TN21/2609Z TEMPO 2518/2521 SCT045 FEW050TCU BECMG 2610/2612 36010KT
SUCA
30.3nm NE
SUCA 251700Z 2518/2618 10010KT CAVOK TX28/2619Z TN17/2609Z BECMG 2521/2600 01010KT
Safelog

 

Dauntless Aviation

© 2007-2014 Dauntless Aviation, all rights reserved
Information provided via PilotNav comes from a variety of official and unofficial data sources. As errors are possible, do not use PilotNav for primary flight planning purposes. Verify any information that you receive via PilotNav with current and canonical charts and other official documents. The material in this database is subject to database copyrights held by Dauntless Aviation and may not be copied without the express permission of Dauntless Aviation - licenses for use of part of all of this data are available for purchase; enquire via the Dauntless Aviation helpdesk. A number of mechanisms and markers exist in the database to protect against and identify infringement / copyright. Automated queries against this website are stictly prohibited, and all activity is logged and analyzed.